GW1597 Weather Reports


time (UTC)temp
C
wind
direction
speed
KPH
gust
KPH
rain 1hr
cm
rain 24hr
cm
rain mn
cm
humidity
%
barometer
mb
20260508151536 16 310 4.8 9.7 0.00 0.00 0.00 54 990.8
20260508150945 16 315 1.6 6.4 0.00 0.00 0.00 55 990.8
20260508145746 15 334 4.8 6.4 0.00 0.00 0.00 62 990.8
20260508145148 14 129 0.0 9.7 0.00 0.00 0.00 64 990.8
20260508143942 14 142 1.6 1.6 0.00 0.00 0.00 70 991.1
20260508142727 13 305 0.0 1.6 0.00 0.00 0.00 71 991.1
20260508142149 12 286 0.0 3.2 0.00 0.00 0.00 72 991.1
20260508141518 12 329 3.2 4.8 0.00 0.00 0.00 75 991.1
20260508140936 11 328 0.0 1.6 0.00 0.00 0.00 78 991.1
20260508135748 10 177 1.6 3.2 0.00 0.00 0.00 82 991.5
20260508135146 10 309 0.0 0.0 0.00 0.00 0.00 83 991.5
20260508134522 10 309 0.0 1.6 0.00 0.00 0.00 84 991.5
20260508133916 9 309 0.0 1.6 0.00 0.00 0.00 87 991.5
20260508133312 8 309 1.6 3.2 0.00 0.00 0.00 87 991.5
20260508132726 8 309 0.0 0.0 0.00 0.00 0.00 88 991.5
20260508132122 8 309 1.6 1.6 0.00 0.00 0.00 88 991.5
20260508130308 7 309 1.6 1.6 0.00 0.00 0.00 89 991.8
20260508125126 6 309 0.0 0.0 0.00 0.00 0.00 91 991.8
20260508123936 6 309 0.0 0.0 0.00 0.00 0.00 94 992.2
20260508123350 5 309 1.6 4.8 0.00 0.00 0.00 93 992.2
20260508122731 5 319 3.2 3.2 0.00 0.00 0.00 94 991.8
20260508122120 5 314 0.0 8.0 0.00 0.00 0.00 94 992.2
20260508121538 5 323 4.8 9.7 0.00 0.00 0.00 93 992.2
20260508120920 5 311 3.2 8.0 0.00 0.00 0.00 94 991.8
20260508115710 4 318 1.6 4.8 0.00 0.00 0.00 95 992.2
20260508115148 4 313 0.0 4.8 0.00 0.00 0.00 95 991.8
20260508114519 4 310 1.6 4.8 0.00 0.00 0.00 95 991.8
20260508113930 4 322 1.6 6.4 0.00 0.00 0.00 95 991.8
20260508113316 4 321 1.6 4.8 0.00 0.00 0.00 95 991.8
20260508112719 4 313 0.0 8.0 0.00 0.00 0.00 95 991.5
20260508112143 4 337 4.8 4.8 0.00 0.00 0.00 95 991.5
20260508111542 4 311 1.6 4.8 0.00 0.00 0.00 95 991.5
20260508110922 4 329 4.8 6.4 0.00 0.00 0.00 95 991.5
20260508110326 4 322 1.6 6.4 0.00 0.00 0.00 95 991.5
20260508105142 4 318 1.6 4.8 0.00 0.00 0.00 95 991.1
20260508103936 4 316 4.8 9.7 0.00 0.00 0.00 95 991.1
20260508103338 4 310 0.0 8.0 0.00 0.00 0.00 95 991.1
20260508102715 4 313 0.0 6.4 0.00 0.00 0.00 95 991.1
20260508102115 4 314 0.0 4.8 0.00 0.00 0.00 95 991.1
20260508101512 4 316 3.2 3.2 0.00 0.00 0.00 95 991.1
20260508100938 4 321 1.6 6.4 0.00 0.00 0.00 95 991.1
20260508100331 4 342 0.0 6.4 0.00 0.00 0.00 95 991.1
20260508095748 4 345 4.8 4.8 0.00 0.00 0.00 95 991.1
20260508095130 4 343 3.2 6.4 0.00 0.00 0.00 95 990.8
20260508094522 4 326 6.4 6.4 0.00 0.00 0.00 95 990.8
20260508093943 4 338 1.6 6.4 0.00 0.00 0.00 95 990.8
20260508092722 4 320 3.2 4.8 0.00 0.00 0.00 95 990.8
20260508092142 4 321 0.0 3.2 0.00 0.00 0.00 95 990.8
20260508091528 4 319 0.0 3.2 0.00 0.00 0.00 95 990.8
20260508090932 4 312 0.0 4.8 0.00 0.00 0.00 95 990.8
20260508085139 4 316 0.0 4.8 0.00 0.00 0.00 95 990.5
20260508084547 4 315 1.6 4.8 0.00 0.00 0.00 95 990.5
20260508083912 4 307 6.4 6.4 0.00 0.00 0.00 95 990.5
20260508083313 4 315 0.0 3.2 0.00 0.00 0.00 96 990.5
20260508082735 4 315 0.0 3.2 0.00 0.00 0.00 96 990.5
20260508082150 4 315 0.0 0.0 0.00 0.00 0.00 96 990.5
20260508081537 4 315 0.0 0.0 0.00 0.00 0.00 95 990.5
20260508080328 4 315 0.0 0.0 0.00 0.00 0.00 95 990.5
20260508075731 4 315 0.0 0.0 0.00 0.00 0.00 95 990.5
20260508075120 4 227 0.0 0.0 0.00 0.00 0.00 95 990.5
20260508074529 4 227 0.0 0.0 0.00 0.00 0.00 96 990.5
20260508073327 4 225 0.0 0.0 0.00 0.00 0.00 95 990.5
20260508072733 4 225 0.0 0.0 0.00 0.00 0.00 95 990.5
20260508072115 4 225 0.0 0.0 0.00 0.00 0.00 95 990.1
20260508071537 4 225 0.0 0.0 0.00 0.00 0.00 95 990.1
20260508070951 3 225 0.0 0.0 0.00 0.00 0.00 95 990.1
20260508070338 3 225 0.0 0.0 0.00 0.00 0.00 95 990.1
20260508065738 3 225 0.0 0.0 0.00 0.00 0.00 95 990.1
20260508065133 3 225 0.0 0.0 0.00 0.00 0.00 95 990.1
20260508064520 3 225 0.0 0.0 0.00 0.00 0.00 95 990.1
20260508063925 4 225 0.0 0.0 0.00 0.00 0.00 95 990.1
20260508063318 4 225 0.0 0.0 0.00 0.00 0.00 95 990.1
20260508062742 4 225 0.0 0.0 0.00 0.00 0.00 95 990.1
20260508062146 4 225 0.0 0.0 0.00 0.00 0.00 95 990.5
20260508061530 4 225 0.0 0.0 0.00 0.00 0.00 95 990.5
20260508060909 4 225 0.0 0.0 0.00 0.00 0.00 95 990.5
20260508060341 4 225 0.0 0.0 0.00 0.00 0.00 95 990.5
20260508055751 5 225 0.0 0.0 0.00 0.00 0.00 95 990.5
20260508055141 5 225 0.0 0.0 0.00 0.00 0.00 95 990.5
20260508054544 4 225 0.0 0.0 0.00 0.00 0.00 95 990.5
20260508052738 5 225 0.0 0.0 0.00 0.00 0.00 95 990.1
20260508052132 5 225 0.0 0.0 0.00 0.00 0.00 95 990.1
20260508051526 5 225 0.0 0.0 0.00 0.00 0.00 95 990.1
20260508050945 5 225 0.0 0.0 0.00 0.00 0.00 95 990.1
20260508050309 5 225 0.0 0.0 0.00 0.00 0.00 95 990.1
20260508045724 5 225 0.0 0.0 0.00 0.00 0.00 95 990.1
20260508045128 5 225 0.0 0.0 0.00 0.00 0.00 95 989.8
20260508044542 5 225 0.0 0.0 0.00 0.00 0.00 95 989.8
20260508043936 5 225 0.0 0.0 0.00 0.00 0.00 94 989.8
20260508043347 5 225 0.0 0.0 0.00 0.00 0.00 94 989.8
20260508042723 5 225 0.0 0.0 0.00 0.00 0.00 94 989.8
20260508042141 5 225 0.0 0.0 0.00 0.00 0.00 94 989.8
20260508041532 5 225 0.0 0.0 0.00 0.00 0.00 94 989.8
20260508040318 6 225 0.0 0.0 0.00 0.00 0.00 94 989.8
20260508035120 6 225 0.0 0.0 0.00 0.00 0.03 94 989.8
20260508034526 6 225 0.0 0.0 0.00 0.00 0.03 94 989.8
20260508033916 6 225 0.0 0.0 0.00 0.00 0.03 94 989.8
20260508033321 6 225 0.0 0.0 0.00 0.00 0.03 94 989.5
20260508032734 6 225 0.0 0.0 0.00 0.00 0.03 94 989.8
20260508032147 6 225 0.0 0.0 0.00 0.00 0.03 94 989.5
20260508031526 6 225 0.0 0.0 0.00 0.00 0.03 94 989.8
20260508030931 6 225 0.0 0.0 0.00 0.00 0.03 93 989.5
20260508030311 6 225 0.0 0.0 0.00 0.00 0.03 93 989.5
20260508025719 7 225 0.0 1.6 0.00 0.00 0.03 93 989.5
20260508025114 7 225 1.6 3.2 0.00 0.00 0.03 93 989.1
20260508024525 7 225 0.0 3.2 0.00 0.00 0.03 93 989.1
20260508023946 7 225 3.2 3.2 0.00 0.00 0.03 93 989.1
20260508023341 7 225 3.2 3.2 0.00 0.00 0.03 93 989.1
20260508022723 7 225 0.0 0.0 0.00 0.00 0.03 92 988.8
20260508021515 7 225 0.0 1.6 0.00 0.00 0.03 92 988.4
20260508020945 8 225 1.6 3.2 0.00 0.00 0.03 92 988.4
20260508020349 8 225 0.0 0.0 0.00 0.00 0.03 92 988.4
20260508015738 8 225 0.0 1.6 0.00 0.00 0.03 91 988.1
20260508015145 8 225 1.6 1.6 0.00 0.00 0.03 91 988.1
20260508014517 8 225 1.6 1.6 0.00 0.00 0.03 91 988.1
20260508012725 9 225 1.6 4.8 0.00 0.00 0.03 89 987.8
20260508011528 9 225 0.0 3.2 0.00 0.00 0.03 89 987.4
20260508010935 10 225 0.0 0.0 0.00 0.00 0.03 88 987.4
20260508010349 10 225 0.0 0.0 0.00 0.00 0.03 87 987.4
20260508005736 10 225 0.0 0.0 0.00 0.00 0.03 87 987.1
20260508003908 11 225 0.0 4.8 0.00 0.00 0.03 84 987.1
20260508003340 11 225 0.0 4.8 0.00 0.00 0.03 83 987.1
20260508002734 11 224 4.8 6.4 0.00 0.00 0.03 82 986.7
20260508002111 12 224 1.6 3.2 0.00 0.00 0.03 80 986.7
20260508001532 12 196 1.6 3.2 0.00 0.00 0.03 79 986.7
20260508000949 12 196 0.0 1.6 0.00 0.00 0.03 77 986.7
20260508000335 13 196 0.0 0.0 0.00 0.00 0.03 77 986.4
20260507235747 13 196 3.2 3.2 0.00 0.00 0.03 73 986.4
20260507235119 14 158 0.0 1.6 0.00 0.00 0.03 71 986.4
20260507234551 15 98 0.0 0.0 0.00 0.00 0.03 68 986.1
20260507233938 15 98 0.0 0.0 0.00 0.00 0.03 65 986.1
20260507233347 15 103 3.2 6.4 0.00 0.00 0.03 63 986.1
20260507231535 16 75 1.6 4.8 0.00 0.00 0.03 59 986.1
20260507225744 16 115 3.2 8.0 0.00 0.00 0.03 62 986.1
20260507225120 16 91 3.2 9.7 0.00 0.00 0.03 60 985.7
20260507224527 16 108 4.8 11.3 0.00 0.00 0.03 60 986.1
20260507223918 17 79 8.0 12.9 0.00 0.00 0.03 54 985.7
20260507223338 17 129 4.8 8.0 0.00 0.00 0.03 55 985.7
20260507222719 17 138 11.3 19.3 0.00 0.00 0.03 53 985.7
20260507221516 17 92 3.2 8.0 0.00 0.00 0.03 55 985.7
20260507220312 17 137 11.3 12.9 0.00 0.00 0.03 51 985.4
20260507215738 18 332 4.8 17.7 0.00 0.00 0.03 51 985.4
20260507215144 17 82 3.2 4.8 0.00 0.00 0.03 56 985.4
20260507213944 17 96 1.6 6.4 0.00 0.00 0.03 57 985.4
20260507212737 18 95 16.1 19.3 0.00 0.00 0.03 52 985.4
20260507211532 20 30 1.6 6.4 0.00 0.00 0.03 55 985.1
20260507210928 18 89 4.8 4.8 0.00 0.00 0.03 52 985.1
20260507210344 18 148 0.0 16.1 0.00 0.00 0.03 54 985.1
20260507204547 17 125 9.7 17.7 0.00 0.00 0.03 57 985.4
20260507202737 18 77 6.4 14.5 0.00 0.00 0.03 53 985.1
20260507202152 18 105 6.4 11.3 0.00 0.00 0.03 54 985.1
20260507201538 18 76 0.0 3.2 0.00 0.00 0.03 55 985.4
20260507200938 17 110 0.0 4.8 0.00 0.00 0.03 56 985.4
20260507195752 18 117 9.7 11.3 0.00 0.00 0.03 54 985.4
20260507195151 18 126 0.0 9.7 0.00 0.00 0.03 57 985.4
20260507194514 18 233 0.0 4.8 0.00 0.00 0.03 57 985.4
20260507193951 17 332 4.8 6.4 0.00 0.00 0.03 60 985.4
20260507192732 16 217 0.0 12.9 0.00 0.00 0.03 59 986.1
20260507192146 16 96 6.4 8.0 0.00 0.00 0.03 61 986.1
20260507191535 16 91 6.4 11.3 0.00 0.00 0.03 62 986.1
20260507190936 16 129 4.8 9.7 0.00 0.00 0.03 61 986.1
20260507185724 16 126 4.8 6.4 0.00 0.00 0.03 59 986.1
20260507185150 16 148 6.4 11.3 0.00 0.00 0.03 59 986.1
20260507184549 16 324 3.2 14.5 0.00 0.00 0.03 58 986.4
20260507183951 16 74 12.9 19.3 0.00 0.00 0.03 59 986.4
20260507183308 16 167 6.4 11.3 0.00 0.00 0.03 66 986.4
20260507182714 16 120 8.0 9.7 0.00 0.00 0.03 64 986.4
20260507182150 16 310 0.0 4.8 0.00 0.00 0.03 65 986.4
20260507181510 16 257 0.0 4.8 0.00 0.00 0.03 63 986.7
20260507180928 15 110 8.0 12.9 0.00 0.00 0.03 63 987.1
20260507180324 15 100 6.4 9.7 0.00 0.00 0.03 65 987.1
20260507174520 15 94 3.2 12.9 0.00 0.00 0.03 63 986.7
20260507173945 15 39 4.8 8.0 0.00 0.00 0.03 64 987.1
20260507172732 15 96 8.0 9.7 0.00 0.00 0.03 64 987.1
20260507172129 15 48 0.0 6.4 0.00 0.00 0.03 66 987.1
20260507170911 15 150 0.0 1.6 0.00 0.00 0.03 67 987.1
20260507170321 15 78 3.2 11.3 0.00 0.00 0.03 61 987.1
20260507165750 15 110 0.0 6.4 0.00 0.00 0.03 63 987.1
20260507165135 16 112 3.2 6.4 0.00 0.00 0.03 64 987.1
20260507163923 15 220 0.0 4.8 0.00 0.00 0.03 61 987.1
20260507162722 15 73 6.4 9.7 0.00 0.00 0.03 64 987.1
20260507162152 15 287 0.0 19.3 0.00 0.00 0.03 61 987.4
20260507161555 15 72 4.8 14.5 0.00 0.00 0.03 61 987.1
20260507160923 15 101 3.2 9.7 0.00 0.00 0.03 63 987.1
20260507160346 15 40 0.0 6.4 0.00 0.00 0.03 65 987.4
20260507155731 15 255 0.0 3.2 0.00 0.00 0.03 66 987.4
20260507155123 14 103 9.7 14.5 0.00 0.00 0.03 63 987.4
20260507154519 15 121 4.8 8.0 0.00 0.00 0.03 65 987.4
20260507153911 15 215 4.8 4.8 0.00 0.00 0.03 67 987.1
20260507153315 15 243 0.0 0.0 0.00 0.00 0.03 72 987.1
20260507152750 14 233 1.6 8.0 0.00 0.00 0.03 74 987.1